| time (UTC) | temp F | wind direction | speed MPH | gust MPH | rain 1hr in | rain 24hr in | rain mn in | humidity % | barometer mb |
| 20260831191044 | 0 | 186 | 0.0 | 3.0 | 0.00 | 0.00 | 0.00 | 1018.4 | |
| 20260831190541 | 0 | 36 | 1.0 | 3.0 | 0.00 | 0.00 | 0.00 | 1018.4 | |
| 20260831190104 | 0 | 101 | 1.0 | 3.0 | 0.00 | 0.00 | 0.00 | 1018.5 | |
| 20260831185538 | 0 | 24 | 1.0 | 3.0 | 0.00 | 0.00 | 0.00 | 1018.6 | |
| 20260831185036 | 0 | 94 | 0.0 | 2.0 | 0.00 | 0.00 | 0.00 | 1018.6 | |
| 20260831184534 | 0 | 342 | 1.0 | 3.0 | 0.00 | 0.00 | 0.00 | 1018.7 | |
| 20260831184035 | 0 | 44 | 1.0 | 3.0 | 0.00 | 0.00 | 0.00 | 1018.6 | |
| 20260831183530 | 0 | 169 | 0.0 | 2.0 | 0.00 | 0.00 | 0.00 | 1018.7 | |
| 20260831183031 | 0 | 5 | 0.0 | 2.0 | 0.00 | 0.00 | 0.00 | 1018.7 | |
| 20260831182528 | 0 | 355 | 1.0 | 2.0 | 0.00 | 0.00 | 0.00 | 1018.8 | |
| 20260831182027 | 0 | 110 | 0.0 | 3.0 | 0.00 | 0.00 | 0.00 | 1018.9 | |
| 20260831181527 | 0 | 332 | 1.0 | 4.0 | 0.00 | 0.00 | 0.00 | 1018.9 | |
| 20260831181023 | 0 | 69 | 2.0 | 4.0 | 0.00 | 0.00 | 0.00 | 1019.0 | |
| 20260831180521 | 0 | 78 | 0.0 | 3.0 | 0.00 | 0.00 | 0.00 | 1019.1 | |
| 20260831180021 | 0 | 100 | 0.0 | 3.0 | 0.00 | 0.00 | 0.00 | 1019.1 | |
| 20260831175518 | 0 | 76 | 1.0 | 2.0 | 0.00 | 0.00 | 0.00 | 1019.2 | |
| 20260831175018 | 0 | 360 | 1.0 | 3.0 | 0.00 | 0.00 | 0.00 | 1019.3 | |
| 20260831174516 | 0 | 71 | 1.0 | 3.0 | 0.00 | 0.00 | 0.00 | 1019.3 | |
| 20260831174015 | 0 | 53 | 0.0 | 2.0 | 0.00 | 0.00 | 0.00 | 1019.3 | |
| 20260831173516 | 0 | 26 | 1.0 | 3.0 | 0.00 | 0.00 | 0.00 | 1019.4 | |
| 20260831173012 | 0 | 94 | 0.0 | 2.0 | 0.00 | 0.00 | 0.00 | 1019.4 | |
| 20260831172510 | 0 | 111 | 0.0 | 2.0 | 0.00 | 0.00 | 0.00 | 1019.4 | |
| 20260831172009 | 0 | 143 | 0.0 | 3.0 | 0.00 | 0.00 | 0.00 | 1019.4 | |
| 20260831171508 | 0 | 123 | 1.0 | 3.0 | 0.00 | 0.00 | 0.00 | 1019.4 | |
| 20260831171006 | 0 | 129 | 0.0 | 3.0 | 0.00 | 0.00 | 0.00 | 1019.4 | |
| 20260831170505 | 0 | 109 | 1.0 | 3.0 | 0.00 | 0.00 | 0.00 | 1019.4 | |
| 20260831170006 | 0 | 342 | 0.0 | 3.0 | 0.00 | 0.00 | 0.00 | 1019.4 | |
| 20260831165504 | 0 | 36 | 1.0 | 3.0 | 0.00 | 0.00 | 0.00 | 1019.4 | |
| 20260831165059 | 0 | 78 | 0.0 | 2.0 | 0.00 | 0.00 | 0.00 | 1019.6 | |
| 20260831164559 | 0 | 360 | 0.0 | 3.0 | 0.00 | 0.00 | 0.00 | 1019.6 | |
| 20260831164100 | 0 | 123 | 1.0 | 3.0 | 0.00 | 0.00 | 0.00 | 1019.6 | |
| 20260831163555 | 0 | 355 | 0.0 | 2.0 | 0.00 | 0.00 | 0.00 | 1019.8 | |
| 20260831163054 | 0 | 119 | 0.0 | 3.0 | 0.00 | 0.00 | 0.00 | 1019.7 | |
| 20260831162556 | 0 | 120 | 0.0 | 3.0 | 0.00 | 0.00 | 0.00 | 1019.8 | |
| 20260831162051 | 0 | 157 | 0.0 | 2.0 | 0.00 | 0.00 | 0.00 | 1019.9 | |
| 20260831161550 | 0 | 67 | 0.0 | 2.0 | 0.00 | 0.00 | 0.00 | 1019.8 | |
| 20260831161048 | 0 | 119 | 1.0 | 2.0 | 0.00 | 0.00 | 0.00 | 1019.9 | |
| 20260831160546 | 0 | 146 | 0.0 | 2.0 | 0.00 | 0.00 | 0.00 | 1019.9 | |
| 20260831160045 | 0 | 144 | 0.0 | 2.0 | 0.00 | 0.00 | 0.00 | 1019.8 | |
| 20260831155545 | 0 | 126 | 0.0 | 2.0 | 0.00 | 0.00 | 0.00 | 1019.9 | |
| 20260831155042 | 0 | 126 | 0.0 | 2.0 | 0.00 | 0.00 | 0.00 | 1020.1 | |
| 20260831154544 | 0 | 118 | 0.0 | 2.0 | 0.00 | 0.00 | 0.00 | 1020.1 | |
| 20260831154039 | 0 | 114 | 0.0 | 2.0 | 0.00 | 0.00 | 0.00 | 1020.2 | |
| 20260831153541 | 0 | 114 | 0.0 | 3.0 | 0.00 | 0.00 | 0.00 | 1020.1 | |
| 20260831153045 | 0 | 113 | 0.0 | 3.0 | 0.00 | 0.00 | 0.00 | 1020.1 | |
| 20260831152535 | 0 | 140 | 0.0 | 1.0 | 0.00 | 0.00 | 0.00 | 1020.1 | |
| 20260831152033 | 0 | 123 | 0.0 | 2.0 | 0.00 | 0.00 | 0.00 | 1020.1 | |
| 20260831151540 | 0 | 123 | 0.0 | 2.0 | 0.00 | 0.00 | 0.00 | 1020.1 | |
| 20260831151030 | 0 | 144 | 0.0 | 2.0 | 0.00 | 0.00 | 0.00 | 1020.1 | |
| 20260831150530 | 0 | 141 | 0.0 | 2.0 | 0.00 | 0.00 | 0.00 | 1020.1 | |
| 20260831150028 | 0 | 140 | 0.0 | 2.0 | 0.00 | 0.00 | 0.00 | 1020.1 | |
| 20260831145526 | 0 | 141 | 0.0 | 2.0 | 0.00 | 0.00 | 0.00 | 1020.1 | |
| 20260831145027 | 0 | 149 | 0.0 | 2.0 | 0.00 | 0.00 | 0.00 | 1020.3 | |
| 20260831144522 | 0 | 122 | 0.0 | 1.0 | 0.00 | 0.00 | 0.00 | 1020.3 | |
| 20260831144022 | 0 | 121 | 0.0 | 0.0 | 0.00 | 0.00 | 0.00 | 1020.1 | |
| 20260831143521 | 0 | 121 | 0.0 | 1.0 | 0.00 | 0.00 | 0.00 | 1020.3 | |
| 20260831143019 | 0 | 121 | 0.0 | 1.0 | 0.00 | 0.00 | 0.00 | 1020.1 | |
| 20260831142517 | 0 | 119 | 0.0 | 1.0 | 0.00 | 0.00 | 0.00 | 1020.2 | |
| 20260831142016 | 0 | 65 | 0.0 | 2.0 | 0.00 | 0.00 | 0.00 | 1020.1 | |
| 20260831141514 | 0 | 43 | 0.0 | 2.0 | 0.00 | 0.00 | 0.00 | 1020.2 | |
| 20260831141014 | 0 | 37 | 0.0 | 2.0 | 0.00 | 0.00 | 0.00 | 1020.1 | |
| 20260831140511 | 0 | 43 | 0.0 | 2.0 | 0.00 | 0.00 | 0.00 | 1020.3 | |
| 20260831140010 | 0 | 35 | 0.0 | 3.0 | 0.00 | 0.00 | 0.00 | 1020.3 | |
| 20260831135509 | 0 | 360 | 1.0 | 3.0 | 0.00 | 0.00 | 0.00 | 1020.2 | |
| 20260831135008 | 0 | 120 | 0.0 | 2.0 | 0.00 | 0.00 | 0.00 | 1020.0 | |
| 20260831134516 | 0 | 140 | 0.0 | 0.0 | 0.00 | 0.00 | 0.00 | 1019.9 | |
| 20260831134005 | 0 | 140 | 0.0 | 1.0 | 0.00 | 0.00 | 0.00 | 1020.0 | |
| 20260831133502 | 0 | 140 | 0.0 | 2.0 | 0.00 | 0.00 | 0.00 | 1019.9 | |
| 20260831133003 | 0 | 136 | 0.0 | 2.0 | 0.00 | 0.00 | 0.00 | 1020.0 | |
| 20260831132100 | 0 | 132 | 0.0 | 1.0 | 0.00 | 0.00 | 0.00 | 1019.9 | |
| 20260831131559 | 0 | 132 | 0.0 | 1.0 | 0.00 | 0.00 | 0.00 | 1019.9 | |
| 20260831131055 | 0 | 120 | 0.0 | 1.0 | 0.00 | 0.00 | 0.00 | 1020.0 | |
| 20260831130554 | 0 | 121 | 0.0 | 1.0 | 0.00 | 0.00 | 0.00 | 1020.1 | |
| 20260831130054 | 0 | 121 | 0.0 | 1.0 | 0.00 | 0.00 | 0.00 | 1020.0 | |
| 20260831125551 | 0 | 136 | 0.0 | 1.0 | 0.00 | 0.00 | 0.00 | 1020.0 | |
| 20260831125050 | 0 | 136 | 0.0 | 1.0 | 0.00 | 0.00 | 0.00 | 1020.0 | |
| 20260831124549 | 0 | 136 | 0.0 | 1.0 | 0.00 | 0.00 | 0.00 | 1020.0 | |
| 20260831124052 | 0 | 136 | 0.0 | 1.0 | 0.00 | 0.00 | 0.00 | 1020.0 | |
| 20260831123549 | 0 | 136 | 0.0 | 1.0 | 0.00 | 0.00 | 0.00 | 1019.9 | |
| 20260831123043 | 0 | 136 | 0.0 | 2.0 | 0.00 | 0.00 | 0.00 | 1020.0 | |
| 20260831122544 | 0 | 138 | 0.0 | 2.0 | 0.00 | 0.00 | 0.00 | 1020.0 | |
| 20260831122041 | 0 | 136 | 0.0 | 2.0 | 0.00 | 0.00 | 0.00 | 1019.9 | |
| 20260831121543 | 0 | 135 | 0.0 | 2.0 | 0.00 | 0.00 | 0.00 | 1019.9 | |
| 20260831121039 | 0 | 134 | 0.0 | 0.0 | 0.00 | 0.00 | 0.00 | 1019.9 | |
| 20260831120537 | 0 | 134 | 0.0 | 0.0 | 0.00 | 0.00 | 0.00 | 1019.9 | |
| 20260831120040 | 0 | 134 | 0.0 | 0.0 | 0.00 | 0.00 | 0.00 | 1019.9 | |
| 20260831115533 | 0 | 134 | 0.0 | 0.0 | 0.00 | 0.00 | 0.00 | 1019.9 | |
| 20260831115032 | 0 | 134 | 0.0 | 0.0 | 0.00 | 0.00 | 0.00 | 1019.8 | |
| 20260831114531 | 0 | 134 | 0.0 | 2.0 | 0.00 | 0.00 | 0.00 | 1019.9 | |
| 20260831114029 | 0 | 134 | 0.0 | 2.0 | 0.00 | 0.00 | 0.00 | 1019.8 | |
| 20260831113530 | 0 | 138 | 0.0 | 2.0 | 0.00 | 0.00 | 0.00 | 1019.8 | |
| 20260831113025 | 0 | 136 | 0.0 | 2.0 | 0.00 | 0.00 | 0.00 | 1019.7 | |
| 20260831112525 | 0 | 136 | 0.0 | 2.0 | 0.00 | 0.00 | 0.00 | 1019.7 | |
| 20260831112023 | 0 | 134 | 0.0 | 2.0 | 0.00 | 0.00 | 0.00 | 1019.6 | |
| 20260831111521 | 0 | 136 | 0.0 | 0.0 | 0.00 | 0.00 | 0.00 | 1019.5 | |
| 20260831111025 | 0 | 136 | 0.0 | 0.0 | 0.00 | 0.00 | 0.00 | 1019.6 | |
| 20260831110518 | 0 | 136 | 0.0 | 0.0 | 0.00 | 0.00 | 0.00 | 1019.5 | |
| 20260831110016 | 0 | 136 | 0.0 | 2.0 | 0.00 | 0.00 | 0.00 | 1019.4 | |
| 20260831105515 | 0 | 136 | 0.0 | 2.0 | 0.00 | 0.00 | 0.00 | 1019.5 | |
| 20260831105013 | 0 | 135 | 0.0 | 2.0 | 0.00 | 0.00 | 0.00 | 1019.5 | |
| 20260831104511 | 0 | 118 | 0.0 | 2.0 | 0.00 | 0.00 | 0.00 | 1019.5 | |
| 20260831104012 | 0 | 109 | 0.0 | 1.0 | 0.00 | 0.00 | 0.00 | 1019.4 | |
| 20260831103509 | 0 | 109 | 0.0 | 1.0 | 0.00 | 0.00 | 0.00 | 1019.5 | |
| 20260831103013 | 0 | 134 | 0.0 | 0.0 | 0.00 | 0.00 | 0.00 | 1019.4 | |
| 20260831102508 | 0 | 134 | 0.0 | 0.0 | 0.00 | 0.00 | 0.00 | 1019.3 | |
| 20260831102005 | 0 | 134 | 0.0 | 0.0 | 0.00 | 0.00 | 0.00 | 1019.2 | |
| 20260831101507 | 0 | 134 | 0.0 | 0.0 | 0.00 | 0.00 | 0.00 | 1019.2 | |
| 20260831101002 | 0 | 134 | 0.0 | 1.0 | 0.00 | 0.00 | 0.00 | 1019.3 | |
| 20260831100501 | 0 | 134 | 0.0 | 1.0 | 0.00 | 0.00 | 0.00 | 1019.2 | |
| 20260831100100 | 0 | 132 | 0.0 | 1.0 | 0.00 | 0.00 | 0.00 | 1019.1 | |
| 20260831095558 | 0 | 131 | 0.0 | 1.0 | 0.00 | 0.00 | 0.00 | 1019.1 | |
| 20260831095056 | 0 | 134 | 0.0 | 2.0 | 0.00 | 0.00 | 0.00 | 1019.1 | |
| 20260831094604 | 0 | 136 | 0.0 | 2.0 | 0.00 | 0.00 | 0.00 | 1019.1 | |
| 20260831094053 | 0 | 136 | 0.0 | 1.0 | 0.00 | 0.00 | 0.00 | 1019.1 | |
| 20260831093552 | 0 | 140 | 0.0 | 0.0 | 0.00 | 0.00 | 0.00 | 1019.2 | |
| 20260831093138 | 0 | 140 | 0.0 | 0.0 | 0.00 | 0.00 | 0.00 | 1019.2 | |
| 20260831092549 | 0 | 140 | 0.0 | 0.0 | 0.00 | 0.00 | 0.00 | 1019.1 | |
| 20260831092047 | 0 | 140 | 0.0 | 0.0 | 0.00 | 0.00 | 0.00 | 1019.1 | |
| 20260831091550 | 0 | 140 | 0.0 | 0.0 | 0.00 | 0.00 | 0.00 | 1019.0 | |
| 20260831091045 | 0 | 140 | 0.0 | 1.0 | 0.00 | 0.00 | 0.00 | 1019.1 | |
| 20260831090543 | 0 | 140 | 0.0 | 2.0 | 0.00 | 0.00 | 0.00 | 1019.2 | |
| 20260831090043 | 0 | 140 | 1.0 | 2.0 | 0.00 | 0.00 | 0.00 | 1019.1 | |
| 20260831085541 | 0 | 140 | 0.0 | 2.0 | 0.00 | 0.00 | 0.00 | 1019.1 | |
| 20260831085040 | 0 | 137 | 0.0 | 2.0 | 0.00 | 0.00 | 0.00 | 1019.0 | |
| 20260831084622 | 0 | 136 | 0.0 | 2.0 | 0.00 | 0.00 | 0.00 | 1019.1 | |
| 20260831084036 | 0 | 137 | 0.0 | 0.0 | 0.00 | 0.00 | 0.00 | 1019.2 | |
| 20260831083535 | 0 | 138 | 0.0 | 0.0 | 0.00 | 0.00 | 0.00 | 1019.1 | |
| 20260831083033 | 0 | 138 | 0.0 | 0.0 | 0.00 | 0.00 | 0.00 | 1019.0 | |
| 20260831082531 | 0 | 138 | 0.0 | 0.0 | 0.00 | 0.00 | 0.00 | 1019.1 | |
| 20260831082034 | 0 | 138 | 0.0 | 0.0 | 0.00 | 0.00 | 0.00 | 1019.1 | |
| 20260831081531 | 0 | 138 | 0.0 | 2.0 | 0.00 | 0.00 | 0.00 | 1019.1 | |
| 20260831081027 | 0 | 138 | 0.0 | 2.0 | 0.00 | 0.00 | 0.00 | 1019.1 | |
| 20260831080525 | 0 | 140 | 0.0 | 2.0 | 0.00 | 0.00 | 0.00 | 1019.1 | |
| 20260831080125 | 0 | 140 | 0.0 | 2.0 | 0.00 | 0.00 | 0.00 | 1019.0 | |
| 20260831075524 | 0 | 140 | 0.0 | 2.0 | 0.00 | 0.00 | 0.00 | 1019.1 | |
| 20260831075024 | 0 | 141 | 0.0 | 2.0 | 0.00 | 0.00 | 0.00 | 1019.2 | |
| 20260831074536 | 0 | 137 | 0.0 | 1.0 | 0.00 | 0.00 | 0.00 | 1019.1 | |
| 20260831074021 | 0 | 137 | 0.0 | 0.0 | 0.00 | 0.00 | 0.00 | 1019.2 | |
| 20260831073519 | 0 | 137 | 0.0 | 0.0 | 0.00 | 0.00 | 0.00 | 1019.2 | |
| 20260831073016 | 0 | 137 | 0.0 | 1.0 | 0.00 | 0.00 | 0.00 | 1019.2 | |
| 20260831072519 | 0 | 137 | 0.0 | 2.0 | 0.00 | 0.00 | 0.00 | 1019.1 | |
| 20260831072014 | 0 | 137 | 0.0 | 2.0 | 0.00 | 0.00 | 0.00 | 1019.1 | |
| 20260831071513 | 0 | 137 | 0.0 | 2.0 | 0.00 | 0.00 | 0.00 | 1019.2 | |
| 20260831071013 | 0 | 136 | 0.0 | 1.0 | 0.00 | 0.00 | 0.00 | 1019.3 | |
| 20260831070510 | 0 | 140 | 0.0 | 2.0 | 0.00 | 0.00 | 0.00 | 1019.3 | |
| 20260831070010 | 0 | 130 | 0.0 | 2.0 | 0.00 | 0.00 | 0.00 | 1019.3 | |
| 20260831065608 | 0 | 138 | 0.0 | 0.0 | 0.00 | 0.00 | 0.00 | 1019.2 | |
| 20260831065006 | 0 | 138 | 0.0 | 0.0 | 0.00 | 0.00 | 0.00 | 1019.2 | |
| 20260831064505 | 0 | 138 | 0.0 | 1.0 | 0.00 | 0.00 | 0.00 | 1019.3 | |
| 20260831064001 | 0 | 138 | 0.0 | 2.0 | 0.00 | 0.00 | 0.00 | 1019.3 | |
| 20260831063501 | 0 | 136 | 0.0 | 2.0 | 0.00 | 0.00 | 0.00 | 1019.2 | |
| 20260831063111 | 0 | 136 | 0.0 | 2.0 | 0.00 | 0.00 | 0.00 | 1019.2 | |
| 20260831062559 | 0 | 136 | 0.0 | 2.0 | 0.00 | 0.00 | 0.00 | 1019.3 | |
| 20260831062058 | 0 | 136 | 1.0 | 2.0 | 0.00 | 0.00 | 0.00 | 1019.3 | |
| 20260831061556 | 0 | 134 | 0.0 | 1.0 | 0.00 | 0.00 | 0.00 | 1019.3 | |
| 20260831061054 | 0 | 134 | 0.0 | 0.0 | 0.00 | 0.00 | 0.00 | 1019.4 | |
| 20260831060553 | 0 | 134 | 0.0 | 0.0 | 0.00 | 0.00 | 0.00 | 1019.5 | |
| 20260831060051 | 0 | 134 | 0.0 | 0.0 | 0.00 | 0.00 | 0.00 | 1019.5 | |
| 20260831055554 | 0 | 134 | 0.0 | 1.0 | 0.00 | 0.00 | 0.00 | 1019.6 | |
| 20260831055048 | 0 | 134 | 0.0 | 2.0 | 0.00 | 0.00 | 0.00 | 1019.6 | |
| 20260831054546 | 0 | 135 | 0.0 | 2.0 | 0.00 | 0.00 | 0.00 | 1019.6 | |
| 20260831054045 | 0 | 135 | 0.0 | 2.0 | 0.00 | 0.00 | 0.00 | 1019.6 | |
| 20260831053543 | 0 | 136 | 0.0 | 1.0 | 0.00 | 0.00 | 0.00 | 1019.7 | |
| 20260831053053 | 0 | 133 | 0.0 | 2.0 | 0.00 | 0.00 | 0.00 | 1019.7 | |
| 20260831052540 | 0 | 130 | 0.0 | 2.0 | 0.00 | 0.00 | 0.00 | 1019.6 | |
| 20260831052042 | 0 | 127 | 0.0 | 0.0 | 0.00 | 0.00 | 0.00 | 1019.7 | |
| 20260831051541 | 0 | 127 | 0.0 | 0.0 | 0.00 | 0.00 | 0.00 | 1019.7 | |
| 20260831051037 | 0 | 127 | 0.0 | 0.0 | 0.00 | 0.00 | 0.00 | 1019.7 | |
| 20260831050535 | 0 | 127 | 0.0 | 1.0 | 0.00 | 0.00 | 0.00 | 1019.8 | |
| 20260831050034 | 0 | 127 | 0.0 | 1.0 | 0.00 | 0.00 | 0.00 | 1019.9 | |
| 20260831045534 | 0 | 130 | 0.0 | 2.0 | 0.00 | 0.00 | 0.00 | 1019.9 | |
| 20260831045031 | 0 | 132 | 0.0 | 2.0 | 0.00 | 0.00 | 0.00 | 1020.0 | |
| 20260831044528 | 0 | 133 | 0.0 | 2.0 | 0.00 | 0.00 | 0.00 | 1020.0 | |
| 20260831044028 | 0 | 129 | 1.0 | 2.0 | 0.00 | 0.00 | 0.00 | 1019.9 | |
| 20260831043526 | 0 | 128 | 0.0 | 2.0 | 0.00 | 0.00 | 0.00 | 1019.9 | |
| 20260831043024 | 0 | 132 | 0.0 | 1.0 | 0.00 | 0.00 | 0.00 | 1020.0 | |
| 20260831042524 | 0 | 132 | 0.0 | 1.0 | 0.00 | 0.00 | 0.00 | 1020.0 | |
| 20260831042022 | 0 | 135 | 0.0 | 1.0 | 0.00 | 0.00 | 0.00 | 1020.0 | |
| 20260831041521 | 0 | 135 | 0.0 | 1.0 | 0.00 | 0.00 | 0.00 | 1020.0 | |
| 20260831041022 | 0 | 111 | 0.0 | 1.0 | 0.00 | 0.00 | 0.00 | 1019.9 | |
| 20260831040519 | 0 | 123 | 0.0 | 0.0 | 0.00 | 0.00 | 0.00 | 1019.8 | |
| 20260831040022 | 0 | 123 | 0.0 | 1.0 | 0.00 | 0.00 | 0.00 | 1019.9 | |
| 20260831035516 | 0 | 123 | 0.0 | 2.0 | 0.00 | 0.00 | 0.00 | 1019.9 | |
| 20260831035015 | 0 | 128 | 1.0 | 2.0 | 0.00 | 0.00 | 0.00 | 1020.0 | |
| 20260831034515 | 0 | 111 | 0.0 | 2.0 | 0.00 | 0.00 | 0.00 | 1020.0 | |
| 20260831034014 | 0 | 126 | 1.0 | 2.0 | 0.00 | 0.00 | 0.00 | 1020.0 | |
| 20260831033515 | 0 | 120 | 0.0 | 1.0 | 0.00 | 0.00 | 0.00 | 1020.1 | |
| 20260831033018 | 0 | 120 | 0.0 | 2.0 | 0.00 | 0.00 | 0.00 | 1020.2 | |
| 20260831032514 | 0 | 120 | 0.0 | 2.0 | 0.00 | 0.00 | 0.00 | 1020.2 | |
| 20260831032015 | 0 | 114 | 0.0 | 3.0 | 0.00 | 0.00 | 0.00 | 1020.2 | |
| 20260831031513 | 0 | 121 | 1.0 | 3.0 | 0.00 | 0.00 | 0.00 | 1020.0 | |
| 20260831031013 | 0 | 136 | 0.0 | 2.0 | 0.00 | 0.00 | 0.00 | 1020.2 | |
| 20260831030514 | 0 | 113 | 0.0 | 0.0 | 0.00 | 0.00 | 0.00 | 1020.2 | |
| 20260831030013 | 0 | 113 | 0.0 | 2.0 | 0.00 | 0.00 | 0.00 | 1020.3 | |
| 20260831025513 | 0 | 103 | 1.0 | 2.0 | 0.00 | 0.00 | 0.00 | 1020.3 | |
| 20260831025013 | 0 | 103 | 0.0 | 2.0 | 0.00 | 0.00 | 0.00 | 1020.2 | |
| 20260831024513 | 0 | 106 | 0.0 | 1.0 | 0.00 | 0.00 | 0.00 | 1020.2 | |
| 20260831024012 | 0 | 111 | 0.0 | 1.0 | 0.00 | 0.00 | 0.00 | 1020.2 | |
| 20260831023516 | 0 | 108 | 0.0 | 1.0 | 0.00 | 0.00 | 0.00 | 1020.3 | |
| 20260831023012 | 0 | 108 | 0.0 | 1.0 | 0.00 | 0.00 | 0.00 | 1020.3 | |
| 20260831022512 | 0 | 102 | 0.0 | 2.0 | 0.00 | 0.00 | 0.00 | 1020.2 | |
| 20260831022012 | 0 | 116 | 0.0 | 2.0 | 0.00 | 0.00 | 0.00 | 1020.2 | |
| 20260831021516 | 0 | 103 | 0.0 | 1.0 | 0.00 | 0.00 | 0.00 | 1020.2 | |
| 20260831021012 | 0 | 129 | 0.0 | 0.0 | 0.00 | 0.00 | 0.00 | 1020.3 | |
| 20260831020512 | 0 | 129 | 0.0 | 2.0 | 0.00 | 0.00 | 0.00 | 1020.3 | |
| 20260831020011 | 0 | 129 | 0.0 | 2.0 | 0.00 | 0.00 | 0.00 | 1020.3 | |
| 20260831015511 | 0 | 109 | 1.0 | 2.0 | 0.00 | 0.00 | 0.00 | 1020.3 | |
| 20260831015010 | 0 | 104 | 0.0 | 2.0 | 0.00 | 0.00 | 0.00 | 1020.4 | |
| 20260831014510 | 0 | 126 | 0.0 | 2.0 | 0.00 | 0.00 | 0.00 | 1020.4 | |
| 20260831014011 | 0 | 106 | 0.0 | 2.0 | 0.00 | 0.00 | 0.00 | 1020.4 | |
| 20260831013510 | 0 | 106 | 0.0 | 2.0 | 0.00 | 0.00 | 0.00 | 1020.4 | |
| 20260831013010 | 0 | 96 | 0.0 | 1.0 | 0.00 | 0.00 | 0.00 | 1020.3 | |
| 20260831012611 | 0 | 104 | 0.0 | 1.0 | 0.00 | 0.00 | 0.00 | 1020.3 | |
| 20260831012011 | 0 | 94 | 0.0 | 1.0 | 0.00 | 0.00 | 0.00 | 1020.4 | |
| 20260831011516 | 0 | 113 | 0.0 | 1.0 | 0.00 | 0.00 | 0.00 | 1020.4 | |
| 20260831011009 | 0 | 88 | 0.0 | 1.0 | 0.00 | 0.00 | 0.00 | 1020.3 | |
| 20260831010509 | 0 | 120 | 0.0 | 1.0 | 0.00 | 0.00 | 0.00 | 1020.3 | |
| 20260831010009 | 0 | 119 | 0.0 | 2.0 | 0.00 | 0.00 | 0.00 | 1020.1 | |
| 20260831005509 | 0 | 124 | 1.0 | 2.0 | 0.00 | 0.00 | 0.00 | 1020.0 | |
| 20260831005008 | 0 | 110 | 0.0 | 2.0 | 0.00 | 0.00 | 0.00 | 1019.9 | |
| 20260831004508 | 0 | 106 | 0.0 | 2.0 | 0.00 | 0.00 | 0.00 | 1019.9 | |
| 20260831004008 | 0 | 98 | 0.0 | 2.0 | 0.00 | 0.00 | 0.00 | 1019.8 | |
| 20260831003507 | 0 | 134 | 0.0 | 2.0 | 0.00 | 0.00 | 0.00 | 1019.9 | |
| 20260831003005 | 0 | 111 | 0.0 | 2.0 | 0.00 | 0.00 | 0.00 | 1019.7 | |
| 20260831002504 | 0 | 111 | 0.0 | 2.0 | 0.00 | 0.00 | 0.00 | 1019.6 | |
| 20260831002003 | 0 | 120 | 0.0 | 1.0 | 0.00 | 0.00 | 0.00 | 1019.5 | |
| 20260831001504 | 0 | 118 | 0.0 | 1.0 | 0.00 | 0.00 | 0.00 | 1019.5 | |
| 20260831001059 | 0 | 107 | 0.0 | 1.0 | 0.00 | 0.00 | 0.00 | 1019.3 | |
| 20260831000558 | 0 | 109 | 0.0 | 1.0 | 0.00 | 0.00 | 0.00 | 1019.3 | |
| 20260831000057 | 0 | 106 | 0.0 | 2.0 | 0.00 | 0.00 | 0.00 | 1019.4 | |
| 20260830235555 | 0 | 108 | 0.0 | 2.0 | 0.00 | 0.00 | 0.00 | 1019.4 | |
| 20260830235058 | 0 | 117 | 0.0 | 1.0 | 0.00 | 0.00 | 0.00 | 1019.3 | |
| 20260830234551 | 0 | 109 | 0.0 | 1.0 | 0.00 | 0.00 | 0.00 | 1019.3 | |
| 20260830234054 | 0 | 92 | 0.0 | 2.0 | 0.00 | 0.00 | 0.00 | 1019.4 | |
| 20260830233549 | 0 | 123 | 0.0 | 2.0 | 0.00 | 0.00 | 0.00 | 1019.4 | |
| 20260830233059 | 0 | 98 | 0.0 | 1.0 | 0.00 | 0.00 | 0.00 | 1019.5 | |
| 20260830232547 | 0 | 141 | 0.0 | 2.0 | 0.00 | 0.00 | 0.00 | 1019.5 | |
| 20260830232045 | 0 | 105 | 0.0 | 2.0 | 0.00 | 0.00 | 0.00 | 1019.6 | |
| 20260830231545 | 0 | 105 | 0.0 | 2.0 | 0.00 | 0.00 | 0.00 | 1019.6 | |
| 20260830231043 | 0 | 105 | 0.0 | 2.0 | 0.00 | 0.00 | 0.00 | 1019.5 | |
| 20260830230542 | 0 | 94 | 0.0 | 1.0 | 0.00 | 0.00 | 0.00 | 1019.5 | |
| 20260830230039 | 0 | 101 | 0.0 | 2.0 | 0.00 | 0.00 | 0.00 | 1019.4 | |
| 20260830225538 | 0 | 98 | 0.0 | 2.0 | 0.00 | 0.00 | 0.00 | 1019.3 | |
| 20260830225035 | 0 | 116 | 0.0 | 3.0 | 0.00 | 0.00 | 0.00 | 1019.5 | |
| 20260830224635 | 0 | 115 | 0.0 | 3.0 | 0.00 | 0.00 | 0.00 | 1019.4 | |
| 20260830224033 | 0 | 117 | 0.0 | 2.0 | 0.00 | 0.00 | 0.00 | 1019.5 | |
| 20260830223531 | 0 | 129 | 0.0 | 2.0 | 0.00 | 0.00 | 0.00 | 1019.5 | |
| 20260830223032 | 0 | 119 | 0.0 | 2.0 | 0.00 | 0.00 | 0.00 | 1019.4 | |
| 20260830222528 | 0 | 141 | 0.0 | 2.0 | 0.00 | 0.00 | 0.00 | 1019.5 | |
| 20260830222026 | 0 | 153 | 0.0 | 3.0 | 0.00 | 0.00 | 0.00 | 1019.5 | |
| 20260830221525 | 0 | 119 | 1.0 | 3.0 | 0.00 | 0.00 | 0.00 | 1019.5 | |
| 20260830221024 | 0 | 117 | 1.0 | 3.0 | 0.00 | 0.00 | 0.00 | 1019.6 | |
| 20260830220522 | 0 | 40 | 0.0 | 2.0 | 0.00 | 0.00 | 0.00 | 1019.5 | |
| 20260830220024 | 0 | 147 | 0.0 | 2.0 | 0.00 | 0.00 | 0.00 | 1020.1 | |
| 20260830215520 | 0 | 95 | 0.0 | 3.0 | 0.00 | 0.00 | 0.00 | 1019.5 | |
| 20260830215020 | 0 | 133 | 1.0 | 3.0 | 0.00 | 0.00 | 0.00 | 1019.5 | |
| 20260830214516 | 0 | 142 | 0.0 | 3.0 | 0.00 | 0.00 | 0.00 | 1019.5 | |
| 20260830214016 | 0 | 124 | 1.0 | 3.0 | 0.00 | 0.00 | 0.00 | 1019.4 | |
| 20260830213513 | 0 | 127 | 1.0 | 3.0 | 0.00 | 0.00 | 0.00 | 1019.4 | |
| 20260830213012 | 0 | 129 | 1.0 | 6.0 | 0.00 | 0.00 | 0.00 | 1019.4 | |
| 20260830212511 | 0 | 113 | 2.0 | 6.0 | 0.00 | 0.00 | 0.00 | 1019.4 | |
| 20260830212009 | 0 | 56 | 1.0 | 4.0 | 0.00 | 0.00 | 0.00 | 1019.3 | |
| 20260830211508 | 0 | 167 | 1.0 | 5.0 | 0.00 | 0.00 | 0.00 | 1019.3 | |
| 20260830211006 | 0 | 111 | 1.0 | 6.0 | 0.00 | 0.00 | 0.00 | 1019.2 | |
| 20260830210505 | 0 | 114 | 1.0 | 4.0 | 0.00 | 0.00 | 0.00 | 1019.2 | |
| 20260830210003 | 0 | 138 | 1.0 | 4.0 | 0.00 | 0.00 | 0.00 | 1019.2 | |
| 20260830205503 | 0 | 169 | 1.0 | 5.0 | 0.00 | 0.00 | 0.00 | 1019.2 | |
| 20260830205059 | 0 | 119 | 0.0 | 5.0 | 0.00 | 0.00 | 0.00 | 1019.3 | |
| 20260830204559 | 0 | 136 | 1.0 | 5.0 | 0.00 | 0.00 | 0.00 | 1019.2 | |
| 20260830204057 | 0 | 147 | 1.0 | 3.0 | 0.00 | 0.00 | 0.00 | 1019.2 | |
| 20260830203555 | 0 | 327 | 1.0 | 5.0 | 0.00 | 0.00 | 0.00 | 1019.3 | |
| 20260830203053 | 0 | 132 | 1.0 | 6.0 | 0.00 | 0.00 | 0.00 | 1019.4 | |
| 20260830202552 | 0 | 119 | 1.0 | 3.0 | 0.00 | 0.00 | 0.00 | 1019.5 | |
| 20260830202051 | 0 | 102 | 1.0 | 3.0 | 0.00 | 0.00 | 0.00 | 1019.6 | |
| 20260830201550 | 0 | 134 | 0.0 | 5.0 | 0.00 | 0.00 | 0.00 | 1019.6 | |
| 20260830201047 | 0 | 119 | 1.0 | 5.0 | 0.00 | 0.00 | 0.00 | 1019.5 | |
| 20260830200546 | 0 | 129 | 1.0 | 3.0 | 0.00 | 0.00 | 0.00 | 1019.6 | |
| 20260830200045 | 0 | 133 | 1.0 | 3.0 | 0.00 | 0.00 | 0.00 | 1019.6 | |
| 20260830195546 | 0 | 129 | 1.0 | 3.0 | 0.00 | 0.00 | 0.00 | 1019.8 | |
| 20260830195041 | 0 | 122 | 1.0 | 3.0 | 0.00 | 0.00 | 0.00 | 1019.8 | |
| 20260830194553 | 0 | 120 | 1.0 | 3.0 | 0.00 | 0.00 | 0.00 | 1020.0 | |
| 20260830194042 | 0 | 163 | 1.0 | 3.0 | 0.00 | 0.00 | 0.00 | 1020.0 | |
| 20260830193537 | 0 | 107 | 1.0 | 2.0 | 0.00 | 0.00 | 0.00 | 1020.2 | |
| 20260830193036 | 0 | 123 | 1.0 | 2.0 | 0.00 | 0.00 | 0.00 | 1020.4 | |
| 20260830192536 | 0 | 144 | 1.0 | 2.0 | 0.00 | 0.00 | 0.00 | 1020.6 | |
| 20260830192032 | 0 | 94 | 1.0 | 2.0 | 0.00 | 0.00 | 0.00 | 1020.8 | |
| 20260830191531 | 0 | 88 | 0.0 | 3.0 | 0.00 | 0.00 | 0.00 | 1020.7 |